[Iaude] MPEC A78: 2024 AO1 [a=1.89,e=0.58,i=3.6,H=22.9]

mpec at marsden.cfa.harvard.edu mpec at marsden.cfa.harvard.edu
Mon Jan 8 10:28:21 EST 2024


M.P.E.C. 2024-A78                               Issued 2024 January 8, 15:26 UT

     The Minor Planet Electronic Circulars contain information on unusual
         minor planets, routine data on comets and natural satellites,
         and occasional editorial announcements.  They are published
    on behalf of Division F of the International Astronomical Union by the
          Minor Planet Center, Smithsonian Astrophysical Observatory,
                          Cambridge, MA 02138, U.S.A.
			  
             Prepared using the Tamkin Foundation Computer Network

                              MPC at CFA.HARVARD.EDU
            URL https://www.minorplanetcenter.net/    ISSN 1523-6714

                                    2024 AO1                                    


Observations:
     K24A01O* C2024 01 06.58875810 05 37.782+61 43 32.66         19.00wXEA078F52
     K24A01O  C2024 01 06.60242810 05 13.282+61 40 59.13         19.18wXEA078F52
     K24A01O  C2024 01 06.61628010 04 48.667+61 38 23.02               VEA078F52
     K24A01O  C2024 01 06.76240 10 00 52.80 +61 11 09.0          19.1 RmEA078P93
     K24A01O  C2024 01 06.76417 10 00 49.79 +61 10 49.5          19.1 RmEA078P93
     K24A01O  C2024 01 06.76595 10 00 46.80 +61 10 29.7          19.1 RmEA078P93
     K24A01O KC2024 01 06.89105 09 57 38.378+60 46 32.27         18.8 GVEA078B42
     K24A01O KC2024 01 06.89500 09 57 32.153+60 45 49.72         18.7 GVEA078B42
     K24A01O KC2024 01 06.89895 09 57 25.985+60 45 07.81         18.9 GVEA078B42
     K24A01O KB2024 01 06.92227409 56 53.93 +60 40 43.7          19.0 GXEA078I93
     K24A01O KB2024 01 06.92419509 56 50.96 +60 40 23.7          19.3 GXEA078I93
     K24A01O KB2024 01 06.92600509 56 48.17 +60 40 04.6          19.1 GXEA078I93
     K24A01O KB2024 01 07.41690 09 45 04.34 +59 12 15.2          18.8 GXEA078H36
     K24A01O KB2024 01 07.41982 09 45 00.41 +59 11 43.7          18.7 GXEA078H36
     K24A01O KB2024 01 07.42258 09 44 56.61 +59 11 13.5          19.1 GXEA078H36
     K24A01O  C2024 01 08.54399509 24 19.814+55 59 57.91         18.91oVEA078T08
     K24A01O  C2024 01 08.54689109 24 16.865+55 59 28.64         19.57oVEA078T08
     K24A01O  C2024 01 08.55393109 24 09.763+55 58 18.88         19.04oVEA078T08
     K24A01O  C2024 01 08.56685909 23 56.722+55 56 11.80         19.05oVEA078T08

Observer details:
B42 Vitebsk.  Observer V. Nevski.  0.3-m f/5.0 0.3-m f/5.0 reflector + CCD.
F52 Pan-STARRS 2, Haleakala.  Observers J. Herman, T. Lowe, P. Minguez, A.
    Schultz, I. Smith.  Measurers K. Chambers, T. de Boer, J. Fairlamb, H.
    Gao, M. Huber, C.-C. Lin, E. Magnier, Y. Ramanjooloo, R. Wainscoat, R.
    Weryk.  1.8-m Ritchey-Chretien + CCD.
H36 Sandlot Observatory, Scranton.  Observer G. Hug.  0.56-m f/4.8 reflector +
    CMO.
I93 St Pardon de Conques.  Observer F. Losse.  0.40-m f/3.7 reflector + CMO.
P93 Space Tracking and Communications Center, JAXA.  Observers S. Okumura, T.
    Fujiwara.  1.0-m f/3.0 reflector + CCD.
T08 ATLAS-MLO, Mauna Loa.  Observers L. Denneau, R. Siverd, J. Tonry, H.
    Weiland.  Measurers L. Denneau, N. Erasmus, A. Fitzsimmons, A. Lawrence,
    J. Robinson, R. Siverd, J. Tonry, H. Weiland.  0.5-m Reflector + CCD.

Orbital elements:
2024 AO1                                                 Earth MOID = 0.0167 AU
Epoch 2023 Sept. 13.0 TT = JDT 2460200.5                MPC                     
M 334.26360              (2000.0)            P               Q                  
n   0.37858075     Peri.   51.15089     +0.80056068     -0.59905376             
a   1.8924759      Node   345.62980     +0.52878792     +0.71828384             
e   0.5848199      Incl.    3.55776     +0.28193250     +0.35384024             
P   2.60           H   22.92          G   0.15           U   8                  
Residuals in seconds of arc
240106 F52  0.0   0.3+    240106 B42  0.1-  0.2-    240107 H36  0.0   0.0
240106 F52  0.2-  0.1+    240106 B42  0.1+  0.2+    240108 T08  0.5+  0.6+
240106 F52  0.0   0.0     240106 I93  0.0   0.0     240108 T08  0.3+  0.1-
240106 P93  0.0   0.3-    240106 I93  0.0   0.2+    240108 T08  0.1+  0.5-
240106 P93  0.1-  0.2-    240106 I93  0.1+  0.2+    240108 T08  0.7-  0.3+
240106 P93  0.1-  0.3-    240107 H36  0.3-  0.2+
240106 B42  0.0   0.1+    240107 H36  0.3+  0.3+

Ephemeris:
2024 AO1                 a,e,i = 1.89, 0.58, 4                   q = 0.7857
Date    TT    R. A. (2000) Decl.     Delta      r    Elong.  Phase     V
2023 12 09    19 13 09.3 -06 57 38   0.1953  0.8340    35.6   136.6    25.4
...
2023 12 24    18 39 47.2 +19 59 27   0.08149 0.9269    44.2   132.3    23.3
...
2024 01 01    15 48 43.0 +64 18 07   0.05736 0.9886    93.6    83.0    19.6
...
2024 01 07    09 54 47.9 +60 26 58   0.07917 1.0384   132.4    44.4    19.2
2024 01 08    09 33 32.4 +57 29 58   0.08504 1.0469   136.7    40.1    19.3
2024 01 09    09 17 39.6 +54 46 18   0.09129 1.0554   140.5    36.4    19.3
...
2024 01 15    08 31 30.5 +43 08 47   0.1343  1.1076   156.0    21.2    19.8
...
2024 01 23    08 10 40.2 +35 09 41   0.2008  1.1789   164.4    12.9    20.6
...
2024 02 07    07 59 35.9 +28 13 44   0.3471  1.3139   157.7    16.5    22.1

A. U. Tomatic                (C) Copyright 2024 MPC           M.P.E.C. 2024-A78





More information about the Iaude mailing list